Theta_e
296 306 305 304 305 300 301 300 292 290 290 290 290 289 288 288 288 288 288 287 287 287 289 287 288 290 290 290 291 291 290 289 286 289 289 287 286 287 289 288 289 289 290
288 295 297 298 296 290 291 290 290 290 289 289 289 289 288 288 288 287 287 287 287 286 287 287 287 288 288 289 289 288 288 289 287 284 287 287 285 285 286 285 286 286 287
287 288 289 290 290 289 288 288 290 291 289 289 289 289 288 287 287 287 287 287 287 286 286 286 286 286 285 287 287 287 287 286 287 285 285 288 288 288 287 286 285 287 286
286 286 287 287 288 288 288 288 289 289 288 289 289 289 289 288 287 287 286 286 286 286 286 286 286 285 285 286 286 286 285 285 285 284 284 284 285 286 286 284 283 285 284
285 285 285 286 286 286 286 287 287 288 288 288 287 287 287 287 287 286 286 286 285 285 285 285 286 286 287 287 285 285 284 284 283 283 282 282 283 283 282 283 282 282 283
283 282 284 285 285 285 286 286 286 286 286 286 286 286 285 286 288 288 286 285 285 284 284 284 285 284 285 286 287 287 286 283 282 282 282 281 282 283 283 282 281 280 279
282 282 282 282 282 282 283 284 284 285 285 285 285 285 285 285 288 288 287 285 285 285 284 284 283 284 284 284 285 286 286 286 286 284 282 282 282 283 282 281 280 280 279
281 281 282 281 280 280 281 281 282 283 283 283 283 284 283 284 288 287 286 284 284 284 284 284 283 283 283 283 283 283 284 285 285 285 284 284 284 283 282 281 281 281 279
279 279 280 281 281 281 280 279 281 281 281 282 282 282 282 284 287 287 285 283 283 283 283 283 283 283 284 285 283 282 282 282 285 287 287 288 288 286 284 281 278 278 277
277 278 279 280 280 280 280 280 281 281 280 281 281 282 282 283 287 287 285 283 282 282 283 283 283 283 285 285 283 281 280 281 282 281 281 284 286 285 286 283 281 279 279
277 277 278 278 278 279 279 279 280 279 280 279 279 280 280 281 284 287 287 283 282 282 282 281 282 284 285 285 285 283 282 283 283 281 280 280 280 281 282 284 283 282 280
276 276 276 277 278 278 278 278 278 279 278 278 278 278 279 279 281 284 286 284 285 282 282 282 282 284 285 285 284 285 285 284 283 282 281 281 281 281 281 280 281 282 283
275 274 275 276 276 277 277 276 276 277 277 277 277 276 276 278 279 282 284 285 285 282 283 283 283 284 284 284 285 285 284 284 283 282 281 281 282 282 281 281 280 280 281
274 273 274 274 274 275 276 276 276 276 276 276 276 276 276 277 277 279 280 282 283 283 283 282 282 283 283 280 279 280 280 281 280 280 280 280 281 280 280 280 280 281 279
273 273 274 274 274 274 274 275 275 275 277 277 277 278 277 276 278 280 281 280 282 282 280 280 279 278 277 277 277 277 277 276 276 277 277 277 278 280 279 280 279 279 278
273 274 274 274 274 274 274 274 275 276 276 277 278 278 277 280 281 282 281 282 282 280 278 277 277 277 277 277 276 275 274 272 274 274 274 274 274 275 277 279 278 277 276
270 273 273 272 273 273 273 273 273 274 277 277 277 278 278 278 280 281 281 280 281 279 277 276 276 276 276 276 275 275 274 273 270 271 272 272 272 273 274 274 274 273 271
268 269 271 273 273 273 273 273 273 273 273 273 276 277 278 279 279 280 280 281 278 279 278 278 277 277 277 276 276 275 273 272 270 270 270 270 269 269 269 269 270 268 269
269 271 272 272 273 272 272 272 272 272 272 273 272 272 273 276 277 278 279 278 278 278 279 279 279 278 278 277 276 274 273 272 272 271 270 268 267 267 266 266 266 265 265
268 266 267 271 271 270 271 271 271 271 271 272 271 273 270 270 272 273 274 276 276 277 277 277 276 276 275 275 275 274 273 271 269 268 267 268 266 265 263 263 264 264 264
269 271 267 269 270 271 271 270 271 271 271 271 272 273 273 271 272 273 272 272 272 273 273 272 272 271 270 269 268 269 268 269 268 266 266 264 264 262 262 263 262 261 261
267 268 269 269 270 269 269 270 270 270 270 269 270 271 273 270 270 271 271 271 271 271 271 270 269 269 270 268 267 267 266 265 265 263 263 261 261 261 260 260 259 259 259
265 266 267 267 267 266 266 267 268 268 268 268 269 269 267 268 270 271 271 270 270 269 267 267 267 267 267 264 265 265 264 263 263 263 261 260 259 259 259 258 258 257 257
265 265 265 266 266 266 266 266 267 264 265 267 267 267 266 266 266 266 266 267 267 266 265 263 263 263 261 262 263 262 262 262 262 260 259 259 258 257 257 256 256 255 255
264 264 264 264 264 264 264 264 264 265 265 265 264 265 265 265 265 265 265 264 262 263 262 261 261 260 259 259 260 260 260 262 259 260 258 257 257 256 255 255 255 256 255
263 263 263 263 263 263 263 263 263 264 263 264 264 264 264 264 264 264 263 262 260 260 259 260 260 259 258 259 259 259 258 261 258 257 258 257 256 255 255 254 254 254 254
Wind_Speed
7 8 10 10 11 8 7 7 8 7 7 12 14 13 12 13 12 11 10 12 11 10 8 9 8 8 6 5 4 3 3 3 4 2 2 2 2 4 3 4 3 4 4
5 5 4 5 6 7 7 7 10 10 11 14 14 15 14 13 13 14 13 11 12 12 10 10 9 7 5 5 5 5 4 4 4 5 3 4 5 5 3 3 4 4 4
4 2 3 4 6 7 7 8 10 11 11 10 12 15 17 16 15 13 13 12 11 10 11 10 10 10 8 6 6 5 4 2 3 4 4 2 2 1 3 4 4 5 4
5 4 3 1 2 4 5 8 10 10 11 12 12 12 13 13 16 15 13 12 10 9 9 9 10 10 9 8 7 6 5 5 5 5 4 5 3 3 2 3 6 4 3
5 5 4 4 3 4 4 5 6 8 9 11 12 11 10 11 9 11 12 13 12 10 8 7 7 8 10 10 6 7 7 6 5 5 5 6 5 3 3 1 2 3 4
6 6 4 3 4 4 4 5 6 6 7 8 10 13 12 8 20 20 15 11 10 10 9 8 7 8 10 13 14 12 9 7 7 6 5 5 4 2 2 2 3 2 3
6 6 5 4 4 4 5 5 6 7 8 8 8 9 13 11 21 21 18 9 10 9 9 8 7 6 8 8 13 15 14 14 13 5 6 5 3 3 3 3 4 5 4
8 7 6 5 5 5 6 6 6 6 8 8 9 8 7 9 20 19 16 10 8 9 8 8 8 8 9 8 8 8 8 8 9 7 8 5 5 4 4 3 3 2 2
8 7 7 6 5 5 6 6 5 6 6 7 7 9 9 9 18 20 13 8 8 8 7 8 8 8 11 14 8 7 6 6 7 11 8 7 10 10 7 3 3 3 3
9 8 7 6 6 5 5 5 3 5 5 5 6 6 8 6 15 18 14 7 8 7 7 7 12 10 14 16 9 7 7 6 5 3 2 7 10 9 15 9 5 5 4
7 7 7 7 6 6 4 5 4 5 5 5 5 5 5 5 6 15 15 7 6 6 5 6 5 15 14 14 14 7 7 5 7 4 3 3 3 3 4 5 8 6 5
6 6 6 6 5 4 4 4 4 3 5 4 5 4 3 3 4 6 12 11 10 5 4 3 4 12 15 15 12 13 14 10 5 5 5 5 4 4 4 4 5 5 5
6 5 6 5 5 5 4 3 2 2 2 3 3 3 3 3 1 6 5 12 13 5 3 7 10 11 12 9 8 6 4 3 3 6 6 4 4 4 3 1 2 3 3
5 5 4 4 4 4 3 3 1 1 1 2 2 3 3 3 3 2 2 1 7 7 8 5 6 6 6 7 4 4 2 2 1 2 1 1 2 2 2 3 3 4 3
4 3 3 3 3 2 2 3 2 3 3 1 1 2 4 4 3 6 5 6 4 7 8 5 5 4 4 3 3 2 2 3 2 2 1 1 2 3 2 2 2 2 3
5 2 2 2 1 1 0 2 2 2 1 0 1 2 2 4 10 11 9 9 12 14 3 4 4 4 4 4 3 3 2 2 2 2 2 1 2 2 2 2 1 3 3
5 5 3 2 1 1 1 1 2 2 2 2 4 5 6 7 11 11 10 10 12 10 3 4 4 4 3 3 2 2 2 2 2 1 1 2 1 1 1 1 2 2 2
5 6 4 3 2 1 1 2 1 2 3 2 4 6 5 8 10 10 11 11 7 9 4 4 4 4 4 4 4 3 2 3 2 2 2 2 2 2 2 2 2 2 2
5 5 3 4 3 2 1 1 1 1 2 3 2 1 3 5 3 3 6 2 4 5 4 3 3 4 4 3 2 3 3 2 3 3 3 2 2 2 2 1 1 3 1
5 7 4 4 3 3 3 3 3 3 3 3 3 3 4 2 3 4 3 2 2 2 1 2 2 3 2 2 3 3 3 3 2 2 2 2 2 2 2 2 2 2 3
4 3 5 4 4 3 3 4 3 3 3 3 3 3 6 3 4 4 4 4 4 3 3 3 2 2 2 2 2 2 3 3 3 3 2 2 3 2 2 2 2 2 2
4 4 3 4 4 4 4 4 4 3 4 3 3 3 8 4 3 3 3 3 3 3 2 2 3 3 4 4 4 4 3 3 2 3 3 3 2 3 2 1 1 1 2
5 5 4 3 3 3 2 4 4 4 4 4 4 3 3 4 4 4 4 3 3 2 2 2 3 3 2 2 1 2 3 3 3 3 4 3 3 2 3 2 3 2 2
5 5 5 4 4 4 4 5 5 5 4 4 5 5 5 5 5 5 4 3 4 3 3 3 3 4 3 3 3 2 2 2 3 4 5 4 4 4 1 2 2 1 0
5 5 5 5 5 5 5 6 6 6 6 6 6 6 5 5 5 5 5 4 4 4 4 3 3 5 7 6 5 5 6 7 5 5 4 4 4 4 3 2 1 1 2
7 7 6 6 6 6 6 6 6 6 6 6 6 6 5 6 6 5 5 4 4 4 4 4 6 8 8 7 8 7 6 7 6 6 4 4 4 3 3 4 4 2 3
Wind_Direction
291 211 204 207 203 196 192 179 155 130 146 161 166 161 164 159 158 152 161 160 161 161 159 165 172 162 168 170 173 184 192 201 229 152 135 130 181 223 213 212 230 248 265
283 258 188 180 160 158 161 149 149 156 161 167 173 169 169 171 169 166 164 168 167 166 166 163 167 162 161 160 171 183 202 207 220 239 194 182 204 197 210 243 259 250 250
339 305 109 148 159 167 162 156 164 167 173 174 180 185 174 171 171 170 165 164 166 165 164 164 164 162 173 172 180 183 208 189 209 238 257 226 236 203 219 217 237 248 241
6 31 48 86 134 160 159 170 176 176 171 177 177 186 185 177 172 165 159 158 157 160 160 164 165 175 176 176 180 186 180 200 208 224 236 250 232 220 216 274 279 242 268
20 44 47 49 66 114 143 163 165 176 181 175 164 165 165 164 173 165 157 155 154 151 151 155 165 172 177 180 177 188 195 207 216 221 235 246 238 208 200 236 278 299 291
47 35 33 72 86 91 115 140 151 149 152 160 171 162 158 160 164 161 149 147 147 153 156 155 161 171 191 199 208 219 201 200 213 216 225 233 240 199 184 221 268 280 277
45 56 50 52 77 81 104 121 137 145 144 148 151 161 153 144 159 154 146 141 146 150 156 160 175 182 191 200 218 218 226 225 220 217 228 229 228 201 174 170 234 254 256
37 43 59 67 63 71 90 97 103 123 130 131 128 126 124 137 152 149 144 148 151 152 166 165 173 181 190 195 198 211 219 221 228 228 232 230 234 184 169 194 217 203 289
30 25 29 45 68 78 72 77 82 99 105 110 112 117 121 141 157 154 146 152 156 163 167 174 177 189 193 200 203 207 219 228 233 232 223 225 238 230 197 152 190 216 246
22 15 24 34 48 49 67 67 60 73 84 98 98 102 118 132 164 167 163 159 160 164 166 181 199 191 197 202 199 197 208 209 199 197 251 250 242 225 223 202 204 209 209
15 20 24 30 45 52 52 64 61 84 91 84 89 88 106 134 178 183 167 159 161 158 172 179 188 205 207 207 208 203 210 185 211 190 189 206 205 212 217 221 203 212 210
16 25 24 17 28 39 53 57 69 93 110 113 115 113 111 119 170 204 197 168 160 159 165 156 173 207 215 214 215 217 217 215 190 196 212 205 204 210 211 204 209 211 223
11 18 21 26 24 25 44 53 68 72 107 131 143 138 140 136 134 198 215 205 185 174 155 173 189 199 202 214 212 168 181 180 205 212 208 208 194 192 177 192 209 230 234
2 11 7 8 27 33 27 20 67 92 116 132 158 150 136 151 155 167 180 215 169 168 160 163 181 158 134 115 119 126 129 132 204 233 213 119 90 143 202 202 217 195 219
348 352 354 9 9 28 31 20 16 26 357 160 165 154 148 156 169 169 173 188 170 129 115 114 120 131 148 153 138 122 137 150 175 195 210 231 234 218 210 171 211 235 231
318 320 344 328 355 357 296 120 65 10 202 322 160 156 86 132 167 166 148 132 136 137 115 145 149 162 180 178 173 152 156 163 163 160 173 197 219 239 222 195 204 267 255
309 312 306 271 274 269 225 223 166 88 42 201 164 176 164 162 163 163 165 166 165 157 148 158 163 171 179 156 158 154 181 170 113 163 174 191 211 242 186 246 241 232 248
284 283 293 291 273 254 254 243 236 186 181 162 60 53 163 163 163 168 176 171 175 183 188 178 183 174 184 183 179 187 176 146 173 179 178 183 188 191 208 206 195 211 241
275 268 259 276 271 274 250 245 244 216 205 164 146 125 72 95 105 155 181 195 194 192 191 190 193 185 195 190 178 172 172 186 174 168 180 168 178 171 218 211 242 256 234
248 248 277 254 246 244 236 224 215 219 214 208 195 190 141 160 179 180 193 203 209 215 200 188 181 177 184 190 191 193 193 184 189 192 186 170 163 177 203 200 224 229 215
279 262 209 235 234 230 234 230 230 224 221 209 211 187 186 196 194 193 181 191 199 199 193 187 179 176 157 174 179 184 178 204 176 173 162 159 153 187 183 228 238 227 227
284 277 253 230 232 220 223 225 226 232 237 238 229 202 223 186 211 212 207 206 197 200 190 181 185 192 188 188 186 196 188 182 173 146 163 157 160 165 170 219 236 256 239
250 257 252 243 242 246 226 230 220 218 220 218 217 206 203 230 230 230 216 213 202 195 177 191 212 219 187 150 219 181 181 177 174 153 151 153 155 177 171 197 193 201 216
247 249 248 249 235 229 232 234 225 217 242 228 215 211 214 215 219 222 222 217 204 206 198 179 201 200 185 184 176 176 177 150 130 148 150 150 153 148 150 149 174 203 218
252 248 245 245 243 234 229 233 237 237 231 219 222 224 222 219 223 222 216 196 191 199 199 188 186 199 205 196 197 188 178 179 151 145 136 136 143 141 132 133 165 195 190
249 245 244 244 240 238 241 239 236 229 226 224 223 222 219 213 214 213 204 191 184 195 194 187 197 201 197 199 201 196 180 171 166 163 142 137 140 147 148 170 189 188 204